SAS457 LTAI-EKCH

Flight info

Callsign SAS457
Flight time 3h 9m
Altitude 40000
Route EKNUD UT337 OSVEL UL619 MAKOL DCT KARIL DCT LENOV DCT BABEN L617 KOLOB/N0448F280 L617 ROE M743 TIDVU
Aircraft A359/H-SDE2E3GHIJ3J4J5LM1ORWXY/LB1D1

Departure

Time 2026-05-06 08:16
Airport Antalya International Airport (LTAI)

Arrival

Time 2026-05-06 11:25
Airport Copenhagen Kastrup Airport (EKCH)
Time Latitude Longitude Altitude Speed Heading
2026-05-06 07:51 36.89692 30.80162 194 ft 0 kts 352°
2026-05-06 08:07 36.89693 30.80162 209 ft 4 kts 352°
2026-05-06 08:07 36.89678 30.80165 212 ft 4 kts 352°
2026-05-06 08:07 36.89656 30.80169 210 ft 2 kts 352°
2026-05-06 08:08 36.89631 30.80174 207 ft 4 kts 356°
2026-05-06 08:08 36.89621 30.80175 212 ft 4 kts 33°
2026-05-06 08:08 36.89607 30.80162 210 ft 4 kts 75°
2026-05-06 08:08 36.89606 30.80137 212 ft 4 kts 96°
2026-05-06 08:09 36.89608 30.80111 212 ft 4 kts 96°
2026-05-06 08:09 36.89611 30.80078 212 ft 4 kts 96°
2026-05-06 08:09 36.89612 30.80065 212 ft 0 kts 96°
2026-05-06 08:09 36.89612 30.80063 212 ft 1 kts 96°
2026-05-06 08:10 36.89612 30.80061 212 ft 0 kts 96°
2026-05-06 08:11 36.89612 30.80065 212 ft 4 kts 95°
2026-05-06 08:11 36.89604 30.80161 212 ft 15 kts 96°
2026-05-06 08:12 36.89592 30.80299 208 ft 17 kts 96°
2026-05-06 08:12 36.89578 30.80455 208 ft 19 kts 97°
2026-05-06 08:12 36.89561 30.80615 209 ft 15 kts 101°
2026-05-06 08:12 36.89487 30.80680 210 ft 15 kts 185°
2026-05-06 08:13 36.89376 30.80663 198 ft 17 kts 187°
2026-05-06 08:13 36.89249 30.80644 204 ft 20 kts 187°
2026-05-06 08:13 36.89115 30.80635 211 ft 17 kts 186°
2026-05-06 08:13 36.88987 30.80615 205 ft 20 kts 188°
2026-05-06 08:14 36.88845 30.80594 200 ft 22 kts 186°
2026-05-06 08:14 36.88687 30.80573 209 ft 24 kts 186°
2026-05-06 08:14 36.88516 30.80551 206 ft 26 kts 186°
2026-05-06 08:14 36.88342 30.80529 205 ft 16 kts 184°
2026-05-06 08:15 36.88224 30.80515 206 ft 18 kts 186°
2026-05-06 08:15 36.88142 30.80587 206 ft 17 kts 107°
2026-05-06 08:15 36.88151 30.80717 210 ft 14 kts 46°
2026-05-06 08:15 36.88249 30.80745 207 ft 16 kts
2026-05-06 08:16 36.88544 30.80785 207 ft 88 kts
2026-05-06 08:16 36.89476 30.80913 256 ft 174 kts
2026-05-06 08:16 36.90673 30.81067 1433 ft 172 kts
2026-05-06 08:16 36.91868 30.81475 2529 ft 187 kts 22°
2026-05-06 08:17 36.93167 30.82179 3440 ft 219 kts 22°
2026-05-06 08:17 36.94618 30.82917 4777 ft 225 kts 20°
2026-05-06 08:17 36.96052 30.83603 6365 ft 220 kts 19°
2026-05-06 08:17 36.97510 30.84275 7634 ft 225 kts 18°
2026-05-06 08:18 36.98989 30.84942 8892 ft 227 kts 18°
2026-05-06 08:18 37.00531 30.85654 9795 ft 251 kts 20°
2026-05-06 08:18 37.02249 30.86500 10390 ft 279 kts 20°
2026-05-06 08:18 37.04146 30.87440 10863 ft 308 kts 20°
2026-05-06 08:19 37.06205 30.88432 11220 ft 324 kts 18°
2026-05-06 08:19 37.08458 30.88818 11480 ft 334 kts 354°
2026-05-06 08:19 37.10771 30.88321 11954 ft 339 kts 347°
2026-05-06 08:19 37.13083 30.87683 12524 ft 342 kts 347°
2026-05-06 08:20 37.15421 30.87055 13102 ft 345 kts 347°
2026-05-06 08:20 37.17777 30.86440 13684 ft 347 kts 347°
2026-05-06 08:20 37.20151 30.85831 14192 ft 349 kts 347°
2026-05-06 08:20 37.22544 30.85224 14639 ft 353 kts 347°
2026-05-06 08:21 37.24939 30.84618 15102 ft 357 kts 347°
2026-05-06 08:21 37.27374 30.84004 15624 ft 358 kts 348°
2026-05-06 08:21 37.29822 30.83387 16146 ft 360 kts 348°
2026-05-06 08:21 37.32283 30.82768 16616 ft 363 kts 348°
2026-05-06 08:22 37.34770 30.82143 17102 ft 365 kts 348°
2026-05-06 08:22 37.37266 30.81511 17597 ft 368 kts 348°
2026-05-06 08:22 37.39782 30.80869 18069 ft 370 kts 348°
2026-05-06 08:22 37.42331 30.80318 18513 ft 374 kts 353°
2026-05-06 08:23 37.44941 30.80237 18953 ft 376 kts 360°
2026-05-06 08:23 37.47562 30.80323 19366 ft 379 kts
2026-05-06 08:23 37.50205 30.80425 19780 ft 381 kts
2026-05-06 08:23 37.52863 30.80549 20167 ft 384 kts
2026-05-06 08:24 37.55541 30.80681 20620 ft 385 kts
2026-05-06 08:24 37.58216 30.80809 21042 ft 387 kts
2026-05-06 08:24 37.60918 30.80935 21424 ft 389 kts
2026-05-06 08:24 37.63668 30.81062 21816 ft 391 kts
2026-05-06 08:25 37.66358 30.81185 22225 ft 393 kts
2026-05-06 08:25 37.69100 30.81310 22612 ft 395 kts
2026-05-06 08:25 37.71861 30.81435 22992 ft 398 kts
2026-05-06 08:25 37.74626 30.81586 23365 ft 400 kts
2026-05-06 08:26 37.77390 30.82161 23720 ft 406 kts 13°
2026-05-06 08:26 37.80021 30.83503 24017 ft 412 kts 26°
2026-05-06 08:26 37.82448 30.85491 24333 ft 417 kts 32°
2026-05-06 08:26 37.84805 30.87641 24659 ft 419 kts 33°
2026-05-06 08:27 37.87169 30.89803 24981 ft 420 kts 33°
2026-05-06 08:27 37.89550 30.91971 25316 ft 422 kts 32°
2026-05-06 08:27 37.92018 30.93971 25635 ft 421 kts 25°
2026-05-06 08:27 37.94701 30.95424 25979 ft 419 kts 15°
2026-05-06 08:28 37.97546 30.96215 26342 ft 417 kts
2026-05-06 08:28 38.00426 30.96586 26698 ft 419 kts
2026-05-06 08:28 38.03345 30.96892 27069 ft 421 kts
2026-05-06 08:28 38.06260 30.97202 27441 ft 423 kts
2026-05-06 08:29 38.09215 30.97522 27836 ft 426 kts
2026-05-06 08:29 38.12179 30.97847 28240 ft 428 kts
2026-05-06 08:29 38.15153 30.98175 28642 ft 430 kts
2026-05-06 08:29 38.18144 30.98506 29048 ft 433 kts
2026-05-06 08:30 38.21154 30.98840 29447 ft 436 kts
2026-05-06 08:30 38.24189 30.99177 29860 ft 438 kts
2026-05-06 08:30 38.27231 30.99516 30271 ft 441 kts
2026-05-06 08:30 38.30291 30.99857 30612 ft 444 kts
2026-05-06 08:31 38.33378 31.00201 30986 ft 446 kts
2026-05-06 08:31 38.36485 31.00548 31340 ft 449 kts
2026-05-06 08:31 38.39595 31.00895 31686 ft 451 kts
2026-05-06 08:31 38.42734 31.01246 32037 ft 453 kts
2026-05-06 08:32 38.45889 31.01424 32353 ft 454 kts 356°
2026-05-06 08:32 38.49030 31.01032 32681 ft 454 kts 347°
2026-05-06 08:32 38.52081 31.00007 32989 ft 454 kts 340°
2026-05-06 08:32 38.55035 30.98691 33294 ft 457 kts 339°
2026-05-06 08:33 38.58040 30.97261 33598 ft 459 kts 338°
2026-05-06 08:33 38.61001 30.95813 33902 ft 461 kts 338°
2026-05-06 08:33 38.63994 30.94341 34222 ft 457 kts 338°
2026-05-06 08:33 38.66935 30.92902 34417 ft 452 kts 338°
2026-05-06 08:34 38.69889 30.91463 34599 ft 456 kts 338°
2026-05-06 08:34 38.75815 30.88596 35337 ft 454 kts 338°
2026-05-06 08:34 38.78782 30.87164 35632 ft 456 kts 338°
2026-05-06 08:35 38.81764 30.85724 35798 ft 461 kts 338°
2026-05-06 08:35 38.84776 30.84268 36016 ft 463 kts 338°
2026-05-06 08:35 38.87778 30.82816 36342 ft 463 kts 338°
2026-05-06 08:35 38.90797 30.81355 36656 ft 463 kts 338°
2026-05-06 08:36 38.92834 30.80368 36871 ft 463 kts 338°
2026-05-06 08:36 38.95810 30.78925 37159 ft 463 kts 338°
2026-05-06 08:36 38.98824 30.77462 37482 ft 463 kts 338°
2026-05-06 08:36 39.01833 30.76000 37804 ft 463 kts 338°
2026-05-06 08:37 39.04838 30.74539 38115 ft 463 kts 338°
2026-05-06 08:37 39.07855 30.73070 38423 ft 463 kts 338°
2026-05-06 08:37 39.10859 30.71606 38725 ft 462 kts 338°
2026-05-06 08:37 39.13868 30.70137 38967 ft 463 kts 338°
2026-05-06 08:38 39.16877 30.68668 39166 ft 463 kts 338°
2026-05-06 08:38 39.19893 30.67194 39373 ft 464 kts 338°
2026-05-06 08:38 39.22915 30.65717 39571 ft 464 kts 338°
2026-05-06 08:38 39.25941 30.64235 39782 ft 464 kts 338°
2026-05-06 08:39 39.28962 30.62755 39951 ft 465 kts 338°
2026-05-06 08:39 39.31987 30.61271 40076 ft 467 kts 338°
2026-05-06 08:39 39.35023 30.59780 40096 ft 467 kts 338°
2026-05-06 08:40 39.41100 30.56793 40101 ft 467 kts 338°
2026-05-06 08:40 39.47161 30.53809 40096 ft 467 kts 338°
2026-05-06 08:41 39.53241 30.50808 40099 ft 467 kts 338°
2026-05-06 08:41 39.59268 30.47668 40102 ft 466 kts 334°
2026-05-06 08:42 39.65155 30.44152 40102 ft 466 kts 334°
2026-05-06 08:42 39.71041 30.40611 40102 ft 466 kts 334°
2026-05-06 08:43 39.76944 30.37127 40100 ft 466 kts 334°
2026-05-06 08:43 39.82857 30.33668 40100 ft 466 kts 334°
2026-05-06 08:44 39.88771 30.30207 40100 ft 466 kts 335°
2026-05-06 08:44 39.94688 30.26736 40099 ft 466 kts 335°
2026-05-06 08:45 40.00561 30.23281 40095 ft 466 kts 335°
2026-05-06 08:45 40.06470 30.19798 40092 ft 466 kts 335°
2026-05-06 08:46 40.12374 30.16312 40093 ft 466 kts 335°
2026-05-06 08:46 40.18292 30.12810 40099 ft 466 kts 335°
2026-05-06 08:47 40.24197 30.09308 40096 ft 466 kts 335°
2026-05-06 08:47 40.30112 30.05795 40096 ft 466 kts 335°
2026-05-06 08:48 40.36018 30.02280 40095 ft 466 kts 335°
2026-05-06 08:48 40.41918 29.98764 40096 ft 466 kts 335°
2026-05-06 08:49 40.47822 29.95236 40098 ft 466 kts 335°
2026-05-06 08:49 40.53718 29.91706 40098 ft 466 kts 335°
2026-05-06 08:50 40.59618 29.88167 40098 ft 466 kts 335°
2026-05-06 08:50 40.65506 29.84628 40100 ft 466 kts 335°
2026-05-06 08:51 40.71407 29.81076 40099 ft 466 kts 335°
2026-05-06 08:51 40.77304 29.77520 40097 ft 466 kts 335°
2026-05-06 08:52 40.83194 29.73959 40099 ft 466 kts 335°
2026-05-06 08:52 40.89081 29.70393 40097 ft 466 kts 335°
2026-05-06 08:53 40.94977 29.66817 40099 ft 466 kts 335°
2026-05-06 08:53 41.00861 29.63239 40097 ft 466 kts 335°
2026-05-06 08:54 41.06755 29.59647 40101 ft 466 kts 335°
2026-05-06 08:54 41.12642 29.56054 40104 ft 466 kts 335°
2026-05-06 08:55 41.18537 29.52476 40101 ft 466 kts 336°
2026-05-06 08:55 41.24710 29.49775 40106 ft 467 kts 342°
2026-05-06 08:56 41.30948 29.47385 40110 ft 467 kts 343°
2026-05-06 08:56 41.37207 29.45032 40111 ft 467 kts 343°
2026-05-06 08:57 41.43459 29.42666 40113 ft 467 kts 343°
2026-05-06 08:57 41.49707 29.40286 40114 ft 467 kts 343°
2026-05-06 08:58 41.55965 29.37893 40116 ft 467 kts 343°
2026-05-06 08:58 41.62213 29.35499 40120 ft 467 kts 343°
2026-05-06 08:59 41.68461 29.33101 40117 ft 467 kts 343°
2026-05-06 08:59 41.74712 29.30697 40117 ft 467 kts 343°
2026-05-06 09:00 41.80956 29.28291 40127 ft 467 kts 343°
2026-05-06 09:00 41.87200 29.25880 40115 ft 467 kts 343°
2026-05-06 09:01 41.93437 29.23467 40124 ft 467 kts 343°
2026-05-06 09:01 41.99688 29.21043 40129 ft 467 kts 343°
2026-05-06 09:02 42.05932 29.18618 40123 ft 467 kts 343°
2026-05-06 09:02 42.12181 29.16185 40124 ft 468 kts 343°
2026-05-06 09:03 42.18113 29.12812 40124 ft 467 kts 329°
2026-05-06 09:03 42.23403 29.07741 40122 ft 467 kts 323°
2026-05-06 09:04 42.28538 29.02339 40123 ft 468 kts 322°
2026-05-06 09:04 42.33654 28.96890 40124 ft 468 kts 322°
2026-05-06 09:05 42.38772 28.91464 40125 ft 468 kts 322°
2026-05-06 09:05 42.43911 28.86029 40124 ft 469 kts 322°
2026-05-06 09:06 42.49051 28.80587 40123 ft 469 kts 322°
2026-05-06 09:06 42.54184 28.75140 40126 ft 469 kts 322°
2026-05-06 09:07 42.59318 28.69679 40128 ft 469 kts 322°
2026-05-06 09:07 42.64448 28.64209 40125 ft 469 kts 322°
2026-05-06 09:08 42.69579 28.58727 40122 ft 469 kts 322°
2026-05-06 09:08 42.74705 28.53238 40125 ft 469 kts 322°
2026-05-06 09:09 42.79831 28.47738 40124 ft 470 kts 322°
2026-05-06 09:09 42.84964 28.42219 40122 ft 470 kts 322°
2026-05-06 09:10 42.90092 28.36692 40123 ft 470 kts 322°
2026-05-06 09:10 42.95210 28.31164 40121 ft 470 kts 322°
2026-05-06 09:11 43.00342 28.25609 40120 ft 470 kts 322°
2026-05-06 09:11 43.05467 28.20049 40121 ft 470 kts 322°
2026-05-06 09:12 43.10584 28.14486 40114 ft 470 kts 322°
2026-05-06 09:12 43.15706 28.08906 40107 ft 470 kts 322°
2026-05-06 09:13 43.20823 28.03318 40105 ft 471 kts 322°
2026-05-06 09:13 43.25941 27.97717 40101 ft 471 kts 322°
2026-05-06 09:14 43.31062 27.92100 40102 ft 471 kts 322°
2026-05-06 09:14 43.36155 27.86500 40099 ft 471 kts 322°
2026-05-06 09:15 43.41271 27.80864 40094 ft 471 kts 321°
2026-05-06 09:15 43.46387 27.75215 40086 ft 471 kts 321°
2026-05-06 09:16 43.51496 27.69560 40076 ft 471 kts 321°
2026-05-06 09:16 43.56606 27.63893 40064 ft 471 kts 321°
2026-05-06 09:17 43.61676 27.58255 40063 ft 471 kts 321°
2026-05-06 09:17 43.66778 27.52571 40062 ft 471 kts 321°
2026-05-06 09:18 43.71880 27.46875 40059 ft 471 kts 321°
2026-05-06 09:18 43.76969 27.41180 40055 ft 471 kts 321°
2026-05-06 09:19 43.82053 27.35478 40054 ft 470 kts 321°
2026-05-06 09:19 43.87133 27.29765 40048 ft 470 kts 321°
2026-05-06 09:20 43.92208 27.24048 40050 ft 470 kts 321°
2026-05-06 09:20 43.97280 27.18320 40049 ft 470 kts 321°
2026-05-06 09:21 44.01491 27.13555 40050 ft 470 kts 321°
2026-05-06 09:21 44.06554 27.07814 40045 ft 469 kts 321°
2026-05-06 09:22 44.11600 27.02078 40045 ft 469 kts 321°
2026-05-06 09:22 44.16656 26.96316 40046 ft 469 kts 321°
2026-05-06 09:23 44.21705 26.90551 40046 ft 469 kts 321°
2026-05-06 09:23 44.26746 26.84782 40045 ft 469 kts 321°
2026-05-06 09:24 44.31780 26.79007 40043 ft 469 kts 321°
2026-05-06 09:24 44.36823 26.73210 40044 ft 469 kts 321°
2026-05-06 09:25 44.41848 26.67420 40042 ft 468 kts 321°
2026-05-06 09:25 44.46873 26.61616 40046 ft 468 kts 321°
2026-05-06 09:26 44.51900 26.55796 40046 ft 468 kts 321°
2026-05-06 09:26 44.56916 26.49976 40043 ft 469 kts 321°
2026-05-06 09:27 44.61933 26.44140 40042 ft 469 kts 321°
2026-05-06 09:27 44.66951 26.38290 40056 ft 468 kts 321°
2026-05-06 09:28 44.71956 26.32440 40038 ft 468 kts 321°
2026-05-06 09:28 44.76971 26.26567 40035 ft 469 kts 321°
2026-05-06 09:29 44.81974 26.20696 40033 ft 468 kts 321°
2026-05-06 09:29 44.86969 26.14819 40031 ft 469 kts 320°
2026-05-06 09:30 44.91971 26.08917 40045 ft 469 kts 320°
2026-05-06 09:30 44.96971 26.03005 40046 ft 469 kts 320°
2026-05-06 09:31 45.01972 25.97081 40043 ft 469 kts 320°
2026-05-06 09:31 45.06962 25.91155 40040 ft 469 kts 320°
2026-05-06 09:32 45.11954 25.85210 40039 ft 468 kts 320°
2026-05-06 09:32 45.16939 25.79263 40040 ft 469 kts 320°
2026-05-06 09:33 45.21926 25.73298 40037 ft 469 kts 320°
2026-05-06 09:33 45.26913 25.67316 40041 ft 469 kts 320°
2026-05-06 09:34 45.31889 25.61333 40037 ft 468 kts 320°
2026-05-06 09:34 45.36825 25.55387 40033 ft 468 kts 320°
2026-05-06 09:35 45.41790 25.49391 40020 ft 468 kts 320°
2026-05-06 09:35 45.46758 25.43375 40035 ft 469 kts 320°
2026-05-06 09:36 45.51713 25.37364 40037 ft 468 kts 320°
2026-05-06 09:36 45.56671 25.31333 40036 ft 468 kts 320°
2026-05-06 09:37 45.61621 25.25300 40031 ft 468 kts 319°
2026-05-06 09:37 45.66566 25.19253 40031 ft 468 kts 319°
2026-05-06 09:38 45.71499 25.13208 40026 ft 467 kts 319°
2026-05-06 09:38 45.76438 25.07142 40019 ft 467 kts 319°
2026-05-06 09:39 45.81345 25.01099 40015 ft 463 kts 319°
2026-05-06 09:39 45.86272 24.95020 40005 ft 468 kts 319°
2026-05-06 09:40 45.91198 24.88928 40007 ft 467 kts 319°
2026-05-06 09:40 45.98560 24.79793 40005 ft 466 kts 319°
2026-05-06 09:41 46.03466 24.73684 40001 ft 466 kts 319°
2026-05-06 09:41 46.08368 24.67566 40002 ft 466 kts 319°
2026-05-06 09:42 46.13265 24.61439 39997 ft 466 kts 319°
2026-05-06 09:42 46.18156 24.55307 40005 ft 466 kts 319°
2026-05-06 09:43 46.23011 24.49208 40005 ft 466 kts 318°
2026-05-06 09:43 46.27896 24.43054 40016 ft 466 kts 318°
2026-05-06 09:44 46.32812 24.36842 40018 ft 466 kts 318°
2026-05-06 09:44 46.37659 24.30705 40017 ft 466 kts 318°
2026-05-06 09:45 46.42564 24.24479 40019 ft 466 kts 318°
2026-05-06 09:45 46.47402 24.18321 40019 ft 466 kts 318°
2026-05-06 09:46 46.52268 24.12118 40012 ft 466 kts 318°
2026-05-06 09:46 46.57134 24.05895 40009 ft 466 kts 318°
2026-05-06 09:47 46.61986 23.99676 40003 ft 465 kts 318°
2026-05-06 09:47 46.66851 23.93422 39995 ft 466 kts 317°
2026-05-06 09:48 46.71701 23.87173 39996 ft 466 kts 317°
2026-05-06 09:48 46.76558 23.80899 39998 ft 466 kts 317°
2026-05-06 09:49 46.81410 23.74614 39995 ft 466 kts 317°
2026-05-06 09:49 46.86253 23.68328 39998 ft 466 kts 317°
2026-05-06 09:50 46.91090 23.62034 40000 ft 466 kts 317°
2026-05-06 09:50 46.95932 23.55715 39997 ft 467 kts 317°
2026-05-06 09:51 47.00776 23.49379 39994 ft 467 kts 317°
2026-05-06 09:51 47.05586 23.43072 39992 ft 467 kts 317°
2026-05-06 09:52 47.10451 23.36678 39974 ft 467 kts 317°
2026-05-06 09:52 47.15253 23.30351 39993 ft 467 kts 317°
2026-05-06 09:53 47.20085 23.23965 39978 ft 467 kts 317°
2026-05-06 09:53 47.24900 23.17587 39982 ft 468 kts 317°
2026-05-06 09:54 47.29781 23.11103 39982 ft 468 kts 316°
2026-05-06 09:54 47.34579 23.04711 39983 ft 468 kts 316°
2026-05-06 09:55 47.39409 22.98264 39986 ft 468 kts 316°
2026-05-06 09:55 47.44227 22.91816 39986 ft 468 kts 316°
2026-05-06 09:56 47.49059 22.85336 39988 ft 469 kts 316°
2026-05-06 09:56 47.53884 22.78843 39992 ft 469 kts 316°
2026-05-06 09:57 47.58706 22.72341 39989 ft 469 kts 316°
2026-05-06 09:57 47.63529 22.65818 39992 ft 469 kts 316°
2026-05-06 09:58 47.68353 22.59274 39989 ft 469 kts 316°
2026-05-06 09:58 47.73164 22.52732 39983 ft 469 kts 316°
2026-05-06 09:59 47.77989 22.46199 39978 ft 469 kts 318°
2026-05-06 09:59 47.83366 22.40655 39972 ft 471 kts 326°
2026-05-06 10:00 47.88967 22.35569 39972 ft 472 kts 327°
2026-05-06 10:00 47.94599 22.30540 39975 ft 472 kts 327°
2026-05-06 10:01 48.00233 22.25483 39968 ft 472 kts 327°
2026-05-06 10:01 48.05849 22.20404 39964 ft 473 kts 327°
2026-05-06 10:02 48.11438 22.15330 39966 ft 473 kts 327°
2026-05-06 10:02 48.17061 22.10213 39961 ft 473 kts 327°
2026-05-06 10:03 48.22713 22.05058 39958 ft 473 kts 326°
2026-05-06 10:03 48.28335 21.99917 39954 ft 473 kts 326°
2026-05-06 10:04 48.33948 21.94771 39945 ft 473 kts 326°
2026-05-06 10:04 48.39554 21.89616 39948 ft 473 kts 326°
2026-05-06 10:05 48.45133 21.84473 39945 ft 473 kts 326°
2026-05-06 10:05 48.50745 21.79285 39940 ft 473 kts 326°
2026-05-06 10:06 48.56358 21.74083 39937 ft 473 kts 326°
2026-05-06 10:06 48.61961 21.68877 39933 ft 473 kts 326°
2026-05-06 10:07 48.67570 21.63654 39934 ft 473 kts 326°
2026-05-06 10:07 48.73176 21.58418 39934 ft 474 kts 326°
2026-05-06 10:08 48.77842 21.54052 39931 ft 474 kts 326°
2026-05-06 10:08 48.83447 21.48790 39926 ft 474 kts 325°
2026-05-06 10:09 48.89060 21.43506 39923 ft 475 kts 325°
2026-05-06 10:09 48.94675 21.38207 39915 ft 475 kts 325°
2026-05-06 10:10 49.00289 21.32896 39907 ft 475 kts 325°
2026-05-06 10:10 49.05901 21.27569 39901 ft 476 kts 325°
2026-05-06 10:11 49.11525 21.22220 39896 ft 476 kts 325°
2026-05-06 10:11 49.17141 21.16867 39890 ft 476 kts 325°
2026-05-06 10:12 49.22754 21.11497 39882 ft 477 kts 325°
2026-05-06 10:12 49.28387 21.06094 39876 ft 477 kts 324°
2026-05-06 10:13 49.34009 21.00688 39867 ft 478 kts 324°
2026-05-06 10:13 49.39597 20.95195 39865 ft 477 kts 324°
2026-05-06 10:14 49.45159 20.89594 39860 ft 478 kts 323°
2026-05-06 10:14 49.50724 20.83982 39837 ft 478 kts 324°
2026-05-06 10:15 49.56290 20.78381 39838 ft 478 kts 324°
2026-05-06 10:15 49.61862 20.72770 39844 ft 478 kts 324°
2026-05-06 10:16 49.67431 20.67150 39830 ft 478 kts 324°
2026-05-06 10:16 49.72994 20.61518 39827 ft 479 kts 324°
2026-05-06 10:17 49.78528 20.55898 39822 ft 479 kts 323°
2026-05-06 10:17 49.84088 20.50233 39826 ft 479 kts 323°
2026-05-06 10:18 49.89652 20.44549 39819 ft 479 kts 323°
2026-05-06 10:18 49.95205 20.38860 39820 ft 479 kts 323°
2026-05-06 10:19 50.00762 20.33153 39819 ft 479 kts 323°
2026-05-06 10:19 50.06317 20.27430 39824 ft 479 kts 323°
2026-05-06 10:20 50.11870 20.21694 39825 ft 479 kts 323°
2026-05-06 10:20 50.17414 20.15950 39825 ft 479 kts 323°
2026-05-06 10:21 50.22960 20.10189 39822 ft 479 kts 323°
2026-05-06 10:21 50.28503 20.04415 39818 ft 479 kts 323°
2026-05-06 10:22 50.34050 19.98619 39821 ft 479 kts 323°
2026-05-06 10:22 50.39583 19.92822 39819 ft 479 kts 323°
2026-05-06 10:23 50.45114 19.87011 39812 ft 479 kts 323°
2026-05-06 10:23 50.50640 19.81188 39805 ft 479 kts 323°
2026-05-06 10:24 50.56134 19.75382 39807 ft 479 kts 323°
2026-05-06 10:24 50.61652 19.69535 39803 ft 479 kts 322°
2026-05-06 10:25 50.67165 19.63676 39803 ft 478 kts 322°
2026-05-06 10:25 50.72688 19.57788 39798 ft 478 kts 322°
2026-05-06 10:26 50.78197 19.51899 39791 ft 478 kts 322°
2026-05-06 10:26 50.83708 19.45991 39792 ft 478 kts 322°
2026-05-06 10:27 50.89211 19.40074 39790 ft 478 kts 322°
2026-05-06 10:27 50.94710 19.34143 39785 ft 478 kts 322°
2026-05-06 10:28 51.00209 19.28196 39783 ft 478 kts 322°
2026-05-06 10:28 51.05707 19.22233 39781 ft 478 kts 322°
2026-05-06 10:29 51.11189 19.16269 39780 ft 477 kts 322°
2026-05-06 10:29 51.16663 19.10297 39778 ft 477 kts 322°
2026-05-06 10:30 51.22136 19.04307 39774 ft 477 kts 322°
2026-05-06 10:30 51.27607 18.98303 39770 ft 477 kts 322°
2026-05-06 10:31 51.33075 18.92285 39767 ft 477 kts 322°
2026-05-06 10:31 51.38543 18.86249 39768 ft 477 kts 322°
2026-05-06 10:32 51.44006 18.80200 39768 ft 477 kts 322°
2026-05-06 10:32 51.49461 18.74142 39764 ft 477 kts 322°
2026-05-06 10:33 51.54915 18.68068 39760 ft 477 kts 322°
2026-05-06 10:33 51.60331 18.62016 39763 ft 477 kts 322°
2026-05-06 10:34 51.65787 18.55904 39763 ft 477 kts 321°
2026-05-06 10:34 51.71238 18.49778 39759 ft 477 kts 321°
2026-05-06 10:35 51.76675 18.43650 39756 ft 477 kts 321°
2026-05-06 10:35 51.82118 18.37496 39757 ft 477 kts 321°
2026-05-06 10:36 51.87556 18.31330 39757 ft 477 kts 321°
2026-05-06 10:36 51.92987 18.25153 39753 ft 477 kts 321°
2026-05-06 10:37 51.98416 18.18960 39755 ft 477 kts 321°
2026-05-06 10:37 52.03842 18.12752 39738 ft 477 kts 321°
2026-05-06 10:38 52.09265 18.06527 39758 ft 477 kts 321°
2026-05-06 10:38 52.14687 18.00284 39748 ft 477 kts 321°
2026-05-06 10:39 52.20098 17.94036 39753 ft 477 kts 321°
2026-05-06 10:39 52.25523 17.87754 39752 ft 477 kts 321°
2026-05-06 10:40 52.30934 17.81467 39749 ft 477 kts 321°
2026-05-06 10:40 52.36309 17.75203 39751 ft 477 kts 321°
2026-05-06 10:41 52.41712 17.68887 39749 ft 477 kts 321°
2026-05-06 10:41 52.47115 17.62551 39749 ft 478 kts 321°
2026-05-06 10:42 52.52510 17.56207 39748 ft 477 kts 320°
2026-05-06 10:42 52.57912 17.49834 39750 ft 478 kts 320°
2026-05-06 10:43 52.63308 17.43448 39751 ft 478 kts 320°
2026-05-06 10:44 52.71386 17.33851 39750 ft 478 kts 320°
2026-05-06 10:44 52.76771 17.27428 39751 ft 478 kts 320°
2026-05-06 10:45 52.82152 17.20990 39754 ft 477 kts 320°
2026-05-06 10:45 52.87530 17.14536 39755 ft 477 kts 320°
2026-05-06 10:46 52.92898 17.08074 39759 ft 477 kts 320°
2026-05-06 10:46 52.98273 17.01582 39762 ft 477 kts 320°
2026-05-06 10:47 53.03602 16.95126 39761 ft 477 kts 320°
2026-05-06 10:47 53.08994 16.88574 39760 ft 478 kts 320°
2026-05-06 10:48 53.14362 16.82029 39759 ft 478 kts 320°
2026-05-06 10:48 53.19723 16.75473 39762 ft 478 kts 320°
2026-05-06 10:49 53.25042 16.68947 39763 ft 478 kts 320°
2026-05-06 10:49 53.30427 16.62320 39775 ft 478 kts 319°
2026-05-06 10:50 53.35742 16.55756 39766 ft 478 kts 319°
2026-05-06 10:50 53.41085 16.49137 39768 ft 478 kts 319°
2026-05-06 10:51 53.46424 16.42503 39778 ft 477 kts 319°
2026-05-06 10:51 53.51796 16.35807 39775 ft 477 kts 319°
2026-05-06 10:52 53.57080 16.29199 39781 ft 477 kts 319°
2026-05-06 10:52 53.62406 16.22516 39783 ft 477 kts 319°
2026-05-06 10:53 53.67714 16.15834 39786 ft 477 kts 319°
2026-05-06 10:53 53.73028 16.09124 39790 ft 477 kts 319°
2026-05-06 10:54 53.78334 16.02403 39793 ft 476 kts 319°
2026-05-06 10:54 53.83634 15.95667 39796 ft 476 kts 319°
2026-05-06 10:55 53.88926 15.88918 39800 ft 476 kts 319°
2026-05-06 10:55 53.94215 15.82153 39802 ft 476 kts 319°
2026-05-06 10:56 53.99505 15.75363 39799 ft 476 kts 319°
2026-05-06 10:56 54.03939 15.69656 39807 ft 477 kts 319°
2026-05-06 10:57 54.09187 15.62880 39814 ft 477 kts 318°
2026-05-06 10:57 54.14464 15.56044 39820 ft 477 kts 318°
2026-05-06 10:58 54.19736 15.49194 39824 ft 477 kts 318°
2026-05-06 10:58 54.25004 15.42325 39828 ft 476 kts 318°
2026-05-06 10:59 54.30273 15.35431 39832 ft 476 kts 318°
2026-05-06 10:59 54.32898 15.31990 39708 ft 475 kts 318°
2026-05-06 10:59 54.35516 15.28554 39216 ft 472 kts 318°
2026-05-06 10:59 54.38022 15.24968 38867 ft 464 kts 310°
2026-05-06 11:00 54.40067 15.20742 38659 ft 460 kts 300°
2026-05-06 11:00 54.41866 15.16186 38410 ft 462 kts 299°
2026-05-06 11:00 54.43646 15.11583 38039 ft 461 kts 299°
2026-05-06 11:00 54.45405 15.07017 37476 ft 457 kts 299°
2026-05-06 11:01 54.47154 15.02456 36831 ft 455 kts 298°
2026-05-06 11:01 54.48884 14.97930 36184 ft 453 kts 298°
2026-05-06 11:01 54.50613 14.93393 35533 ft 453 kts 298°
2026-05-06 11:01 54.52337 14.88858 34866 ft 452 kts 298°
2026-05-06 11:02 54.54058 14.84324 34103 ft 454 kts 298°
2026-05-06 11:02 54.55787 14.79755 33251 ft 456 kts 298°
2026-05-06 11:02 54.57520 14.75171 32436 ft 456 kts 298°
2026-05-06 11:02 54.59253 14.70580 31688 ft 456 kts 298°
2026-05-06 11:03 54.60972 14.66020 31095 ft 451 kts 298°
2026-05-06 11:03 54.62673 14.61502 30525 ft 447 kts 298°
2026-05-06 11:03 54.64357 14.57016 29952 ft 444 kts 297°
2026-05-06 11:03 54.66025 14.52564 29295 ft 440 kts 297°
2026-05-06 11:04 54.67678 14.48142 28725 ft 435 kts 297°
2026-05-06 11:04 54.69308 14.43777 28143 ft 430 kts 297°
2026-05-06 11:04 54.70816 14.39730 27636 ft 426 kts 297°
2026-05-06 11:04 54.72509 14.35178 27026 ft 422 kts 298°
2026-05-06 11:05 54.74067 14.30983 26489 ft 418 kts 298°
2026-05-06 11:05 54.75632 14.26760 25933 ft 415 kts 298°
2026-05-06 11:05 54.77180 14.22576 25384 ft 411 kts 298°
2026-05-06 11:05 54.78714 14.18424 24836 ft 408 kts 298°
2026-05-06 11:06 54.80237 14.14293 24285 ft 405 kts 298°
2026-05-06 11:06 54.81745 14.10197 23737 ft 402 kts 298°
2026-05-06 11:06 54.83248 14.06108 23136 ft 400 kts 298°
2026-05-06 11:06 54.84736 14.02053 22539 ft 396 kts 298°
2026-05-06 11:07 54.86202 13.98055 21995 ft 391 kts 298°
2026-05-06 11:07 54.87652 13.94092 21432 ft 387 kts 298°
2026-05-06 11:07 54.89085 13.90169 20889 ft 383 kts 298°
2026-05-06 11:07 54.90509 13.86263 20329 ft 380 kts 298°
2026-05-06 11:08 54.91916 13.82397 19765 ft 377 kts 298°
2026-05-06 11:08 54.93306 13.78574 19204 ft 375 kts 298°
2026-05-06 11:08 54.94698 13.74736 18639 ft 372 kts 298°
2026-05-06 11:08 54.96074 13.70937 18060 ft 370 kts 298°
2026-05-06 11:09 54.97441 13.67160 17447 ft 367 kts 298°
2026-05-06 11:09 54.98795 13.63410 16873 ft 363 kts 298°
2026-05-06 11:09 55.00130 13.59711 16323 ft 359 kts 298°
2026-05-06 11:09 55.01453 13.56038 15765 ft 356 kts 298°
2026-05-06 11:10 55.02764 13.52393 15212 ft 352 kts 298°
2026-05-06 11:10 55.04057 13.48791 14666 ft 349 kts 299°
2026-05-06 11:10 55.05336 13.45226 14136 ft 345 kts 299°
2026-05-06 11:10 55.06614 13.41661 13380 ft 347 kts 299°
2026-05-06 11:11 55.07887 13.38107 12785 ft 343 kts 299°
2026-05-06 11:11 55.09139 13.34605 12260 ft 338 kts 299°
2026-05-06 11:11 55.10374 13.31147 11746 ft 332 kts 299°
2026-05-06 11:11 55.11585 13.27746 11221 ft 328 kts 299°
2026-05-06 11:12 55.12779 13.24387 10857 ft 319 kts 299°
2026-05-06 11:12 55.13898 13.21249 10736 ft 288 kts 298°
2026-05-06 11:12 55.14908 13.18417 10648 ft 265 kts 298°
2026-05-06 11:12 55.15858 13.15729 10547 ft 255 kts 298°
2026-05-06 11:13 55.16781 13.13109 10446 ft 254 kts 298°
2026-05-06 11:13 55.17710 13.10470 10339 ft 254 kts 298°
2026-05-06 11:13 55.18625 13.07871 10199 ft 254 kts 298°
2026-05-06 11:13 55.19553 13.05235 9923 ft 254 kts 298°
2026-05-06 11:14 55.20488 13.02575 9664 ft 264 kts 298°
2026-05-06 11:14 55.21467 12.99778 9553 ft 272 kts 298°
2026-05-06 11:14 55.22439 12.97020 9112 ft 263 kts 299°
2026-05-06 11:14 55.23416 12.94234 8726 ft 270 kts 299°
2026-05-06 11:15 55.24401 12.91426 8391 ft 270 kts 300°
2026-05-06 11:15 55.25379 12.88636 8099 ft 269 kts 300°
2026-05-06 11:15 55.26356 12.85844 7801 ft 268 kts 300°
2026-05-06 11:15 55.27328 12.83062 7500 ft 267 kts 300°
2026-05-06 11:16 55.28295 12.80294 7197 ft 267 kts 300°
2026-05-06 11:16 55.29263 12.77517 6893 ft 266 kts 300°
2026-05-06 11:16 55.30229 12.74747 6601 ft 264 kts 301°
2026-05-06 11:16 55.31182 12.72005 6294 ft 263 kts 301°
2026-05-06 11:17 55.32136 12.69261 5982 ft 262 kts 301°
2026-05-06 11:17 55.33083 12.66533 5680 ft 261 kts 301°
2026-05-06 11:17 55.34028 12.63813 5385 ft 260 kts 301°
2026-05-06 11:17 55.34967 12.61098 5096 ft 259 kts 301°
2026-05-06 11:18 55.35902 12.58391 4782 ft 258 kts 302°
2026-05-06 11:18 55.36834 12.55691 4495 ft 258 kts 302°
2026-05-06 11:18 55.37758 12.53015 4252 ft 256 kts 302°
2026-05-06 11:18 55.38643 12.50447 4121 ft 237 kts 302°
2026-05-06 11:19 55.39473 12.48037 4020 ft 226 kts 302°
2026-05-06 11:19 55.40283 12.45684 3906 ft 224 kts 302°
2026-05-06 11:19 55.41094 12.43328 3665 ft 225 kts 303°
2026-05-06 11:19 55.41938 12.41016 3391 ft 224 kts 309°
2026-05-06 11:20 55.43123 12.39305 3027 ft 221 kts 338°
2026-05-06 11:20 55.44618 12.38943 2735 ft 217 kts
2026-05-06 11:20 55.45972 12.39916 2582 ft 208 kts 35°
2026-05-06 11:20 55.47047 12.41542 2479 ft 199 kts 43°
2026-05-06 11:21 55.48035 12.43171 2409 ft 191 kts 41°
2026-05-06 11:21 55.49020 12.44680 2227 ft 185 kts 40°
2026-05-06 11:21 55.49987 12.46146 2037 ft 181 kts 40°
2026-05-06 11:21 55.50927 12.47577 1999 ft 178 kts 40°
2026-05-06 11:22 55.51857 12.49006 1955 ft 177 kts 40°
2026-05-06 11:22 55.52740 12.50366 1802 ft 157 kts 40°
2026-05-06 11:22 55.53547 12.51610 1569 ft 152 kts 40°
2026-05-06 11:22 55.54328 12.52814 1356 ft 146 kts 41°
2026-05-06 11:23 55.55084 12.53979 1151 ft 143 kts 41°
2026-05-06 11:23 55.55819 12.55114 967 ft 140 kts 40°
2026-05-06 11:23 55.56552 12.56242 760 ft 140 kts 40°
2026-05-06 11:23 55.57280 12.57369 577 ft 140 kts 41°
2026-05-06 11:24 55.58015 12.58502 378 ft 139 kts 41°
2026-05-06 11:24 55.58748 12.59635 181 ft 139 kts 41°
2026-05-06 11:24 55.59470 12.60731 41 ft 135 kts 39°
2026-05-06 11:24 55.60117 12.61721 31 ft 103 kts 41°
2026-05-06 11:25 55.60570 12.62430 26 ft 73 kts 41°
2026-05-06 11:25 55.60888 12.62933 25 ft 51 kts 41°
2026-05-06 11:25 55.61088 12.63240 27 ft 21 kts 39°
2026-05-06 11:25 55.61209 12.63309 27 ft 19 kts 346°
2026-05-06 11:26 55.61338 12.63304 26 ft 20 kts
2026-05-06 11:26 55.61457 12.63432 25 ft 21 kts 41°
2026-05-06 11:26 55.61574 12.63614 28 ft 23 kts 41°
2026-05-06 11:26 55.61697 12.63804 25 ft 21 kts 41°
2026-05-06 11:27 55.61813 12.63982 26 ft 23 kts 41°
2026-05-06 11:27 55.61948 12.64141 25 ft 24 kts 26°
2026-05-06 11:27 55.62109 12.64272 27 ft 26 kts 25°
2026-05-06 11:27 55.62283 12.64400 23 ft 27 kts 16°
2026-05-06 11:28 55.62424 12.64474 27 ft 18 kts 16°
2026-05-06 11:28 55.62517 12.64415 27 ft 10 kts 305°
2026-05-06 11:28 55.62523 12.64399 26 ft 0 kts 304°
2026-05-06 11:30 55.62558 12.64311 26 ft 5 kts 305°
2026-05-06 11:30 55.62581 12.64303 27 ft 4 kts
2026-05-06 11:31 55.62606 12.64347 25 ft 6 kts 64°
2026-05-06 11:31 55.62620 12.64406 26 ft 1 kts 67°
2026-05-06 11:31 55.62623 12.64417 26 ft 0 kts 67°
2026-05-06 11:31 55.62624 12.64422 26 ft 0 kts 67°
2026-05-06 11:40 55.62624 12.64421 23 ft 0 kts 67°